Mariq — SVA2152 — position and weather

sailwx.info

Track history (hours):
 
Tides and Currents Weather Stations Pressure Air Temp Water Temp Dewpoint Dewpoint Depression Visibility Wind Speed Wind Dir Waves Ship Positions

Mariq

Last reported at 2014-Jul-28 23:33 UTC. Time now 2014-Jul-29 02:36 UTC.
Position N 37°42' E 024°04'.

Length 57 m.

Type: Tanker. MMSI: 239758424.

Date/timePositionNaut miles runAvg speedWind from/ knotsBaromVisibWave heightAir tempDewpointWater temp
2014-Jul-28 23:33N 37°42' E 024°04'0 0.0
2014-Jul-28 22:06N 37°42' E 024°04'31 0.6
2014-Jul-26 18:25N 37°16' E 024°24'910.1
2014-Jul-26 17:33N 37°11' E 024°33'10 9.9
2014-Jul-26 16:33N 37°05' E 024°42'10 9.7
2014-Jul-26 15:33N 36°59' E 024°51'9 9.3
2014-Jul-26 14:33N 36°54' E 025°02'1010.3
2014-Jul-26 13:33N 36°54' E 025°14'1110.5
2014-Jul-26 12:33N 36°54' E 025°28'7 7.1
2014-Jul-26 11:33N 36°56' E 025°36'0 0.0
2014-Jul-26 10:33N 36°56' E 025°36'0 0.0
2014-Jul-26 09:33N 36°56' E 025°36'0 0.0
2014-Jul-26 08:33N 36°56' E 025°36'0 0.0
2014-Jul-26 07:33N 36°56' E 025°36'0 0.0
2014-Jul-26 06:33N 36°56' E 025°36'0 0.0
2014-Jul-26 05:33N 36°56' E 025°36'0 0.0
2014-Jul-26 04:33N 36°56' E 025°36'0 0.0
2014-Jul-26 03:33N 36°56' E 025°36'0 0.0
2014-Jul-26 02:33N 36°56' E 025°36'0 0.0
2014-Jul-26 01:33N 36°56' E 025°36'0 0.0
2014-Jul-26 00:33N 36°56' E 025°36'0 0.0
2014-Jul-25 23:33N 36°56' E 025°36'3 3.0
2014-Jul-25 22:33N 36°53' E 025°34'3 2.8
2014-Jul-25 21:33N 36°52' E 025°31'0 0.0
2014-Jul-25 20:33N 36°52' E 025°31'0 0.0
2014-Jul-25 19:33N 36°52' E 025°31'0 0.0
2014-Jul-25 18:33N 36°52' E 025°31'0 0.0
2014-Jul-25 17:26N 36°52' E 025°31'0 0.0
2014-Jul-25 16:33N 36°52' E 025°31'3 2.7
2014-Jul-25 15:33N 36°53' E 025°27'9 8.8
2014-Jul-25 14:33N 36°54' E 025°16'9 8.5
2014-Jul-25 13:33N 36°55' E 025°06'9 8.8
2014-Jul-25 12:33N 36°57' E 024°55'9 8.5
2014-Jul-25 11:33N 37°02' E 024°47'8 8.4
2014-Jul-25 10:33N 37°08' E 024°39'9 8.8
2014-Jul-25 09:33N 37°13' E 024°31'11 8.7
2014-Jul-25 08:17N 37°20' E 024°20'810.0
2014-Jul-25 07:30N 37°27' E 024°15'15 0.9
2014-Jul-24 15:33N 37°27' E 024°34'1110.6
2014-Jul-24 14:33N 37°23' E 024°46'1010.2
2014-Jul-24 13:33N 37°20' E 024°59'1010.3
2014-Jul-24 12:33N 37°18' E 025°11'1010.5
2014-Jul-24 11:33N 37°15' E 025°24'1010.5
2014-Jul-24 10:33N 37°11' E 025°36'10 9.7
2014-Jul-24 09:33N 37°05' E 025°45'9 9.2
2014-Jul-24 08:33N 36°58' E 025°53'6 5.8
2014-Jul-24 07:33N 36°54' E 025°59'0 0.0
2014-Jul-24 06:33N 36°54' E 025°59'0 0.0
2014-Jul-24 05:33N 36°54' E 025°59'0 0.0
2014-Jul-24 04:33N 36°54' E 025°59'0 0.0
2014-Jul-24 03:33N 36°54' E 025°59'0 0.0
2014-Jul-24 02:33N 36°54' E 025°59'0 0.0
2014-Jul-24 01:33N 36°54' E 025°59'0 0.0
2014-Jul-24 00:33N 36°54' E 025°59'4 4.1
2014-Jul-23 23:33N 36°58' E 026°01'9 9.2
2014-Jul-23 22:33N 37°02' E 026°11'9 9.4
2014-Jul-23 21:33N 37°06' E 026°22'10 9.5
2014-Jul-23 20:32N 37°11' E 026°33'24 1.3
2014-Jul-23 02:22N 37°23' E 026°59'0 0.1
2014-Jul-23 01:33N 37°23' E 026°59'45 8.4
2014-Jul-22 20:07N 36°41' E 027°21'5 9.2
2014-Jul-22 19:32N 36°39' E 027°27'  
2014-Jul-20 00:20N 37°18' E 026°38'4 4.8
2014-Jul-19 23:27N 37°19' E 026°33'0 0.0
2014-Jul-19 16:32N 37°19' E 026°33'0 0.0
2014-Jul-19 15:33N 37°19' E 026°33'0 0.0
2014-Jul-19 14:12N 37°19' E 026°33'  
Track history (hours):
 
Tides and Currents Weather Stations Pressure Air Temp Water Temp Dewpoint Dewpoint Depression Visibility Wind Speed Wind Dir Waves Ship Positions

Mariq

Last reported at 2014-Jul-28 23:33 UTC. Time now 2014-Jul-29 02:36 UTC.
Position N 37°42' E 024°04'.

Length 57 m.

Type: Tanker. MMSI: 239758424.

Date/timePositionNaut miles runAvg speedWind from/ knotsBaromVisibWave heightAir tempDewpointWater temp
2014-Jul-28 23:33N 37°42' E 024°04'0 0.0
2014-Jul-28 22:06N 37°42' E 024°04'31 0.6
2014-Jul-26 18:25N 37°16' E 024°24'910.1
2014-Jul-26 17:33N 37°11' E 024°33'10 9.9
2014-Jul-26 16:33N 37°05' E 024°42'10 9.7
2014-Jul-26 15:33N 36°59' E 024°51'9 9.3
2014-Jul-26 14:33N 36°54' E 025°02'1010.3
2014-Jul-26 13:33N 36°54' E 025°14'1110.5
2014-Jul-26 12:33N 36°54' E 025°28'7 7.1
2014-Jul-26 11:33N 36°56' E 025°36'0 0.0
2014-Jul-26 10:33N 36°56' E 025°36'0 0.0
2014-Jul-26 09:33N 36°56' E 025°36'0 0.0
2014-Jul-26 08:33N 36°56' E 025°36'0 0.0
2014-Jul-26 07:33N 36°56' E 025°36'0 0.0
2014-Jul-26 06:33N 36°56' E 025°36'0 0.0
2014-Jul-26 05:33N 36°56' E 025°36'0 0.0
2014-Jul-26 04:33N 36°56' E 025°36'0 0.0
2014-Jul-26 03:33N 36°56' E 025°36'0 0.0
2014-Jul-26 02:33N 36°56' E 025°36'0 0.0
2014-Jul-26 01:33N 36°56' E 025°36'0 0.0
2014-Jul-26 00:33N 36°56' E 025°36'0 0.0
2014-Jul-25 23:33N 36°56' E 025°36'3 3.0
2014-Jul-25 22:33N 36°53' E 025°34'3 2.8
2014-Jul-25 21:33N 36°52' E 025°31'0 0.0
2014-Jul-25 20:33N 36°52' E 025°31'0 0.0
2014-Jul-25 19:33N 36°52' E 025°31'0 0.0
2014-Jul-25 18:33N 36°52' E 025°31'0 0.0
2014-Jul-25 17:26N 36°52' E 025°31'0 0.0
2014-Jul-25 16:33N 36°52' E 025°31'3 2.7
2014-Jul-25 15:33N 36°53' E 025°27'9 8.8
2014-Jul-25 14:33N 36°54' E 025°16'9 8.5
2014-Jul-25 13:33N 36°55' E 025°06'9 8.8
2014-Jul-25 12:33N 36°57' E 024°55'9 8.5
2014-Jul-25 11:33N 37°02' E 024°47'8 8.4
2014-Jul-25 10:33N 37°08' E 024°39'9 8.8
2014-Jul-25 09:33N 37°13' E 024°31'11 8.7
2014-Jul-25 08:17N 37°20' E 024°20'810.0
2014-Jul-25 07:30N 37°27' E 024°15'15 0.9
2014-Jul-24 15:33N 37°27' E 024°34'1110.6
2014-Jul-24 14:33N 37°23' E 024°46'1010.2
2014-Jul-24 13:33N 37°20' E 024°59'1010.3
2014-Jul-24 12:33N 37°18' E 025°11'1010.5
2014-Jul-24 11:33N 37°15' E 025°24'1010.5
2014-Jul-24 10:33N 37°11' E 025°36'10 9.7
2014-Jul-24 09:33N 37°05' E 025°45'9 9.2
2014-Jul-24 08:33N 36°58' E 025°53'6 5.8
2014-Jul-24 07:33N 36°54' E 025°59'0 0.0
2014-Jul-24 06:33N 36°54' E 025°59'0 0.0
2014-Jul-24 05:33N 36°54' E 025°59'0 0.0
2014-Jul-24 04:33N 36°54' E 025°59'0 0.0
2014-Jul-24 03:33N 36°54' E 025°59'0 0.0
2014-Jul-24 02:33N 36°54' E 025°59'0 0.0
2014-Jul-24 01:33N 36°54' E 025°59'0 0.0
2014-Jul-24 00:33N 36°54' E 025°59'4 4.1
2014-Jul-23 23:33N 36°58' E 026°01'9 9.2
2014-Jul-23 22:33N 37°02' E 026°11'9 9.4
2014-Jul-23 21:33N 37°06' E 026°22'10 9.5
2014-Jul-23 20:32N 37°11' E 026°33'24 1.3
2014-Jul-23 02:22N 37°23' E 026°59'0 0.1
2014-Jul-23 01:33N 37°23' E 026°59'45 8.4
2014-Jul-22 20:07N 36°41' E 027°21'5 9.2
2014-Jul-22 19:32N 36°39' E 027°27'  
2014-Jul-20 00:20N 37°18' E 026°38'4 4.8
2014-Jul-19 23:27N 37°19' E 026°33'0 0.0
2014-Jul-19 16:32N 37°19' E 026°33'0 0.0
2014-Jul-19 15:33N 37°19' E 026°33'0 0.0
2014-Jul-19 14:12N 37°19' E 026°33'  

Dump ship's entire track history